[[{"header":{"parameterUnit":"m.s-1","parameterCategory":1,"la1":30.2991,"la2":30.254,"lo1":-89.0895,"lo2":-89.0444,"dy":0.0017,"dx":0.0017,"nx":28,"ny":28,"refTime":"2023-10-08T21:00:00:Z","depth":0,"parameterNumber":2,"parameterNumberName":"U-component_of_WINDS"},"data":[0,0,0,0,0,0,0,0,0,0,0,0,0,0,0,0,0,0,0,0,0,0,0,0,0,0,0,0,0,0,0,0,0,0,0,0,0,0,0,0,0,0,0,0,0,0,0,0,0,0,0,0,0,0,0,0,0,0,-2.0953,-2.0954,0,-2.1048,-2.1049,-2.105,-2.1051,-2.105,-2.1049,-2.1047,-2.1142,-2.1146,-2.115,0,0,0,0,0,0,0,0,0,0,0,0,0,-2.077,-2.0773,-2.0953,-2.0954,-2.0955,-2.1048,-2.1049,-2.1051,-2.1051,-2.105,-2.1048,-2.1047,-2.1141,-2.1146,-2.115,0,0,0,0,0,0,0,0,0,0,0,0,0,-2.0855,-2.0774,-2.0953,-2.0967,-2.0969,-2.1048,-2.1049,-2.1051,-2.1052,-2.105,-2.1048,-2.1046,-2.114,-2.1145,-2.1151,-2.1221,0,0,-2.1167,-2.117,0,0,0,0,0,0,0,0,-2.085,-2.0862,-2.0964,-2.0966,-2.0969,-2.1036,-2.1019,-2.1108,-2.1052,-2.102,-2.1047,-2.1045,-2.1108,-2.1116,-2.1138,-2.1225,-2.1229,-2.1168,-2.1171,-2.1173,-2.1175,0,0,0,0,0,0,0,-2.0845,-2.0858,-2.0991,-2.0965,-2.0968,-2.0968,-2.0978,-2.1036,-2.1073,-2.1023,-2.1023,-2.1034,-2.1109,-2.1133,-2.114,-2.1231,-2.1168,-2.1173,-2.1176,-2.1178,-2.1379,-2.1381,0,0,0,0,0,0,-2.0836,-2.0853,-2.0988,-2.0993,-2.0904,-2.0973,-2.0984,-2.1016,-2.1073,-2.1079,-2.1036,-2.1034,-2.1124,-2.1134,-2.1144,-2.1228,-2.1173,-2.1179,-2.1182,-2.1377,-2.1379,-2.1381,0,0,0,0,0,0,-2.0832,-2.0848,-2.0984,-2.0923,-2.0941,-2.0978,-2.1014,-2.1019,-2.1042,-2.1083,-2.1089,-2.1053,-2.1123,-2.1136,-2.1201,-2.1232,-2.1181,-2.1186,-2.1374,-2.1377,-2.138,-2.1399,0,0,0,0,0,0,-2.0827,-2.0847,-2.0874,-2.0924,-2.0944,-2.1041,-2.1016,-2.1022,-2.1052,-2.1051,-2.11,-2.1107,-2.1123,-2.1193,-2.1207,-2.1238,-2.119,-2.1372,-2.1376,-2.1379,-2.1396,-2.1402,-2.1408,0,0,0,0,0,-2.082,-2.0875,-2.0876,-2.0892,-2.0979,-2.1042,-2.1054,-2.1072,-2.1055,-2.1082,-2.1108,-2.1105,-2.1227,-2.12,-2.1215,-2.1249,-2.137,-2.1375,-2.1379,-2.1393,-2.1401,-2.1408,0,0,0,0,0,0,-2.0827,-2.0882,-2.0883,-2.0956,-2.0995,-2.1042,-2.1078,-2.108,-2.1123,-2.112,-2.114,-2.1151,-2.1216,-2.1239,-2.1209,-2.1319,-2.1296,-2.1304,-2.1301,-2.1309,-2.1315,-2.1307,-2.1195,0,0,0,0,0,-2.0838,-2.0885,-2.093,-2.099,-2.101,-2.1041,-2.1069,-2.1079,-2.112,-2.1136,-2.1166,-2.1205,-2.1252,-2.1282,-2.1327,-2.14,-2.141,-2.143,-2.1436,-2.1441,-2.1447,-2.1486,-2.1495,-2.1396,-2.1396,-2.1396,0,0,-2.0859,-2.0895,-2.0924,-2.0993,-2.1024,-2.1072,-2.1054,-2.1106,-2.1141,-2.1143,-2.1207,-2.1231,-2.1275,-2.1344,-2.1376,-2.1365,-2.1477,-2.1447,-2.145,-2.1454,-2.1491,-2.1501,-2.1509,-2.14,-2.1399,-2.1399,0,0,-2.0922,-2.0955,-2.1008,-2.1039,-2.1087,-2.1107,-2.112,-2.1168,-2.1183,-2.1248,-2.125,-2.1292,-2.1373,-2.1404,-2.143,-2.1505,-2.1504,-2.1519,-2.155,-2.1588,-2.1596,-2.1602,-2.1628,-2.1637,-2.1526,-2.1526,-2.1526,0,-2.0942,-2.1015,-2.1034,-2.1086,-2.1116,-2.1121,-2.1174,-2.1204,-2.1264,-2.1284,-2.1271,-2.1372,-2.1402,-2.1478,-2.1496,-2.1518,-2.1532,-2.1513,-2.1593,-2.16,-2.1607,-2.1631,-2.1641,-2.1527,-2.1527,-2.1527,-2.1527,0,-2.1037,-2.1087,-2.1124,-2.1182,-2.1216,-2.1269,-2.1295,-2.1327,-2.1335,-2.1356,-2.1421,-2.1457,-2.151,-2.1529,-2.1537,-2.1606,-2.1597,-2.1589,-2.1566,-2.1617,-2.164,-2.165,-2.1529,-2.1529,-2.1528,-2.1528,0,0,-2.1106,-2.1174,-2.1187,-2.1213,-2.1266,-2.1305,-2.1357,-2.1409,-2.1436,-2.1477,-2.152,-2.1588,-2.1581,-2.161,-2.1622,-2.1655,-2.171,-2.1643,-2.1644,-2.1652,-2.1787,-2.1792,-2.1802,-2.171,-2.1712,-2.1714,-2.1783,0,-2.1173,-2.1267,-2.1286,-2.1366,-2.1412,-2.1418,-2.1463,-2.15,-2.1521,-2.1562,-2.1586,-2.1633,-2.162,-2.1638,-2.1671,-2.1697,-2.1737,-2.1692,-2.1749,-2.1751,-2.1737,-2.1815,-2.182,-2.1883,-2.1792,-2.1793,-2.1795,0,-2.1265,-2.1308,-2.1393,-2.1439,-2.1459,-2.15,-2.1548,-2.1589,-2.163,-2.1643,-2.1677,-2.1684,-2.1738,-2.1713,-2.1786,-2.1755,-2.178,-2.1796,-2.1799,-2.1803,-2.1775,-2.182,-2.1904,-2.1912,-2.1809,-2.1808,-2.1807,0,-2.1305,-2.1385,-2.1446,-2.1468,-2.1524,-2.1552,-2.1576,-2.1616,-2.1646,-2.1688,-2.1708,-2.1756,-2.1781,-2.1818,-2.1838,-2.1819,-2.1909,-2.1886,-2.192,-2.1919,-2.1937,-2.1936,-2.2025,-2.1956,-2.1956,-2.1956,-2.1956,0,-2.1377,-2.1429,-2.1464,-2.1502,-2.1559,-2.158,-2.1636,-2.166,-2.1696,-2.1737,-2.1745,-2.1784,-2.1809,-2.185,-2.1867,-2.1924,-2.1936,-2.1947,-2.195,-2.1945,-2.1943,-2.196,-2.1956,-2.1958,-2.1958,-2.1957,-2.1957,0,-2.1431,-2.1458,-2.1524,-2.1572,-2.1585,-2.1625,-2.1665,-2.1701,-2.1722,-2.1774,-2.1788,-2.1821,-2.1871,-2.1895,-2.1956,-2.1967,-2.2031,-2.2033,-2.2017,-2.2018,-2.205,-2.2046,-2.2152,-2.2166,-2.2089,-2.209,-2.209,0,-2.1475,-2.1515,-2.1567,-2.1595,-2.162,-2.1666,-2.1697,-2.1719,-2.175,-2.18,-2.183,-2.188,-2.1921,-2.2,-2.2029,-2.2076,-2.2077,-2.2111,-2.2084,-2.2078,-2.2076,-2.2072,-2.2076,-2.2115,-2.2116,-2.2117,-2.2117,0,-2.155,-2.1561,-2.1604,-2.1653,-2.1689,-2.1728,-2.1767,-2.1789,-2.1818,-2.1852,-2.1903,-2.1935,-2.1998,-2.2047,-2.2096,-2.212,-2.2123,-2.2126,-2.2135,-2.213,-2.2119,-2.2124,-2.2029,-2.2123,-2.2122,-2.2122,-2.2121,-2.2121,-2.1599,-2.1634,-2.1676,-2.1724,-2.1756,-2.1791,-2.1827,-2.1853,-2.1896,-2.1949,-2.196,-2.2013,-2.2053,-2.2119,-2.2145,-2.2187,-2.2179,-2.2194,-2.2197,-2.22,-2.2201,-2.2114,-2.2196,-2.2196,-2.2196,-2.2196,-2.2196,0,-2.1672,-2.17,-2.1744,-2.1798,-2.1835,-2.1836,-2.1878,-2.191,-2.1957,-2.1994,-2.2035,-2.2093,-2.2141,-2.2174,-2.2222,-2.2249,-2.2251,-2.226,-2.2258,-2.2263,-2.2206,-2.2192,-2.2257,-2.2257,-2.2257,-2.2257,-2.2257,-2.2257,-2.1715,-2.1774,-2.179,-2.1864,-2.1891,-2.1944,-2.1968,-2.2,-2.203,-2.2095,-2.2135,-2.2156,-2.2192,-2.2242,-2.2286,-2.2294,-2.2311,-2.232,-2.2328,-2.2274,-2.2267,-2.2261,-2.2248,-2.2324,-2.2324,-2.2381,-2.2382,-2.2382]},{"header":{"parameterUnit":"m.s-1","parameterCategory":1,"la1":30.2991,"la2":30.254,"lo1":-89.0895,"lo2":-89.0444,"dy":0.0017,"dx":0.0017,"nx":28,"ny":28,"refTime":"2023-10-08T21:00:00:Z","depth":0,"parameterNumber":3,"parameterNumberName":"V-component_of_WINDS"},"data":[0,0,0,0,0,0,0,0,0,0,0,0,0,0,0,0,0,0,0,0,0,0,0,0,0,0,0,0,0,0,0,0,0,0,0,0,0,0,0,0,0,0,0,0,0,0,0,0,0,0,0,0,0,0,0,0,0,0,-1.3813,-1.3813,0,-1.3819,-1.3819,-1.3819,-1.3807,-1.3807,-1.3806,-1.3806,-1.3812,-1.3813,-1.3813,0,0,0,0,0,0,0,0,0,0,0,0,0,-1.3793,-1.3794,-1.3813,-1.3813,-1.3814,-1.3819,-1.3819,-1.3819,-1.3807,-1.3807,-1.3806,-1.3806,-1.3812,-1.3813,-1.3813,0,0,0,0,0,0,0,0,0,0,0,0,0,-1.3801,-1.3794,-1.3813,-1.3808,-1.3808,-1.3819,-1.3819,-1.3819,-1.3807,-1.3807,-1.3806,-1.3806,-1.3812,-1.3813,-1.3813,-1.383,0,0,-1.3816,-1.3816,0,0,0,0,0,0,0,0,-1.38,-1.3802,-1.3809,-1.3809,-1.3808,-1.3812,-1.3814,-1.3823,-1.3807,-1.3808,-1.3806,-1.3805,-1.3813,-1.3813,-1.3816,-1.383,-1.383,-1.3816,-1.3816,-1.3817,-1.3817,0,0,0,0,0,0,0,-1.38,-1.3801,-1.3816,-1.3809,-1.3809,-1.3806,-1.3806,-1.3816,-1.3813,-1.3807,-1.3807,-1.3807,-1.3812,-1.3815,-1.3816,-1.383,-1.3816,-1.3817,-1.3817,-1.3817,-1.3858,-1.3859,0,0,0,0,0,0,-1.38,-1.3801,-1.3815,-1.3816,-1.3803,-1.3807,-1.3807,-1.3811,-1.3813,-1.3813,-1.3808,-1.3807,-1.3814,-1.3815,-1.3816,-1.3835,-1.3817,-1.3818,-1.3818,-1.3858,-1.3858,-1.3859,0,0,0,0,0,0,-1.38,-1.3801,-1.3815,-1.3808,-1.381,-1.3808,-1.3812,-1.3812,-1.3814,-1.3813,-1.3813,-1.3811,-1.3813,-1.3815,-1.3826,-1.3835,-1.3818,-1.3819,-1.3857,-1.3858,-1.3859,-1.3873,0,0,0,0,0,0,-1.3799,-1.3801,-1.3807,-1.3808,-1.381,-1.3825,-1.3813,-1.3812,-1.3815,-1.3814,-1.3816,-1.3816,-1.3813,-1.3825,-1.3827,-1.3836,-1.3819,-1.3856,-1.3857,-1.3858,-1.3872,-1.3874,-1.3876,0,0,0,0,0,-1.3798,-1.3811,-1.3808,-1.381,-1.3818,-1.3826,-1.3827,-1.3823,-1.3816,-1.3822,-1.3822,-1.3816,-1.3834,-1.3826,-1.3828,-1.3837,-1.3856,-1.3857,-1.3858,-1.3871,-1.3874,-1.3876,0,0,0,0,0,0,-1.3812,-1.3811,-1.3807,-1.3821,-1.3824,-1.3824,-1.3831,-1.3827,-1.3831,-1.383,-1.3825,-1.3826,-1.3838,-1.3839,-1.3831,-1.3853,-1.3843,-1.3845,-1.3852,-1.3855,-1.3857,-1.3857,-1.382,0,0,0,0,0,-1.3816,-1.3823,-1.3822,-1.3834,-1.3836,-1.3834,-1.3837,-1.3834,-1.3836,-1.3837,-1.3838,-1.3841,-1.3847,-1.3851,-1.3857,-1.3872,-1.3872,-1.3879,-1.3881,-1.3883,-1.3885,-1.3893,-1.3896,-1.3864,-1.3864,-1.3864,0,0,-1.3826,-1.3827,-1.3831,-1.3837,-1.3839,-1.3846,-1.3834,-1.3842,-1.3848,-1.3839,-1.3849,-1.385,-1.3853,-1.3866,-1.3872,-1.3867,-1.3894,-1.3885,-1.3886,-1.3887,-1.3894,-1.3897,-1.39,-1.3865,-1.3864,-1.3864,0,0,-1.3847,-1.3848,-1.3858,-1.386,-1.3862,-1.386,-1.3863,-1.3864,-1.3863,-1.3874,-1.3867,-1.3874,-1.3884,-1.3887,-1.3889,-1.391,-1.3905,-1.3913,-1.3925,-1.3932,-1.3935,-1.3937,-1.3944,-1.3947,-1.3914,-1.3914,-1.3914,0,-1.3858,-1.3868,-1.3864,-1.3872,-1.3875,-1.3867,-1.3877,-1.3879,-1.3883,-1.3885,-1.388,-1.3893,-1.3894,-1.3908,-1.3913,-1.3915,-1.3918,-1.3912,-1.3935,-1.3937,-1.3939,-1.3946,-1.3949,-1.3915,-1.3915,-1.3915,-1.3915,0,-1.3882,-1.3889,-1.3897,-1.3901,-1.3905,-1.3914,-1.3911,-1.3915,-1.3912,-1.3911,-1.3921,-1.3923,-1.3928,-1.3932,-1.3928,-1.3945,-1.3941,-1.3936,-1.3926,-1.3943,-1.3949,-1.3952,-1.3916,-1.3916,-1.3916,-1.3916,0,0,-1.3912,-1.3912,-1.3915,-1.3917,-1.3919,-1.3924,-1.3933,-1.3938,-1.3942,-1.3945,-1.3952,-1.3962,-1.3956,-1.3959,-1.3956,-1.3963,-1.3979,-1.3956,-1.3956,-1.396,-1.3997,-1.4001,-1.4004,-1.3976,-1.3976,-1.3977,-1.3997,0,-1.3932,-1.3946,-1.3942,-1.3957,-1.3964,-1.3956,-1.3964,-1.3966,-1.3965,-1.397,-1.397,-1.3976,-1.3968,-1.397,-1.3976,-1.3976,-1.3987,-1.3974,-1.3983,-1.3983,-1.3982,-1.4008,-1.4012,-1.4031,-1.3999,-1.4,-1.4,0,-1.3957,-1.3961,-1.3976,-1.3977,-1.3979,-1.3986,-1.399,-1.3996,-1.3998,-1.3997,-1.4,-1.3996,-1.4004,-1.3995,-1.4007,-1.3999,-1.4002,-1.4002,-1.4003,-1.4003,-1.3992,-1.4009,-1.4037,-1.404,-1.4004,-1.4004,-1.4003,0,-1.3977,-1.3985,-1.3996,-1.3997,-1.3998,-1.4003,-1.4004,-1.4005,-1.4009,-1.4013,-1.4015,-1.402,-1.4023,-1.4027,-1.4024,-1.4017,-1.4036,-1.4026,-1.4036,-1.4036,-1.404,-1.404,-1.4069,-1.4043,-1.4042,-1.4042,-1.4042,0,-1.3999,-1.4009,-1.4004,-1.401,-1.4021,-1.4016,-1.4027,-1.4027,-1.4028,-1.4035,-1.4029,-1.4035,-1.4031,-1.4036,-1.4034,-1.4045,-1.4046,-1.4045,-1.4045,-1.4046,-1.4046,-1.4048,-1.4046,-1.4043,-1.4043,-1.4043,-1.4043,0,-1.4023,-1.402,-1.403,-1.403,-1.4031,-1.4038,-1.4038,-1.4044,-1.4043,-1.4051,-1.4052,-1.4051,-1.4057,-1.4055,-1.4062,-1.406,-1.4073,-1.4071,-1.4072,-1.4072,-1.4081,-1.408,-1.4112,-1.4116,-1.4087,-1.4088,-1.4088,0,-1.4037,-1.4044,-1.4045,-1.4048,-1.4049,-1.4055,-1.4058,-1.4054,-1.4058,-1.4061,-1.4066,-1.4072,-1.4077,-1.4087,-1.4087,-1.4092,-1.409,-1.4101,-1.4091,-1.4091,-1.409,-1.4089,-1.409,-1.4103,-1.4103,-1.4103,-1.4104,0,-1.4063,-1.4061,-1.4066,-1.407,-1.4074,-1.4077,-1.408,-1.4083,-1.4079,-1.4084,-1.409,-1.4093,-1.41,-1.4106,-1.4111,-1.4112,-1.4107,-1.4107,-1.4109,-1.411,-1.4111,-1.411,-1.4078,-1.4106,-1.4106,-1.4106,-1.4105,-1.4105,-1.4082,-1.4088,-1.4089,-1.4095,-1.4096,-1.4099,-1.4104,-1.4103,-1.4108,-1.4113,-1.4111,-1.4118,-1.412,-1.4126,-1.4128,-1.4134,-1.4129,-1.4133,-1.4134,-1.4135,-1.4136,-1.411,-1.4134,-1.4134,-1.4134,-1.4134,-1.4134,0,-1.4108,-1.4108,-1.4113,-1.4117,-1.4121,-1.4116,-1.4118,-1.4122,-1.4129,-1.4131,-1.4135,-1.4142,-1.4148,-1.4148,-1.4153,-1.4158,-1.4156,-1.4159,-1.4159,-1.4159,-1.4139,-1.4137,-1.4161,-1.4161,-1.4161,-1.4161,-1.4161,-1.4161,-1.4121,-1.4131,-1.4129,-1.4139,-1.414,-1.4146,-1.4148,-1.4151,-1.4152,-1.4161,-1.4165,-1.4165,-1.4166,-1.4171,-1.4176,-1.4176,-1.4179,-1.4183,-1.4182,-1.4163,-1.4161,-1.4158,-1.4155,-1.4183,-1.4183,-1.4201,-1.4201,-1.4202]}]]